Tracking 31027 objects as of 19-Jul-2025
HD Live streaming from Space Station
objects crossing your sky now

CZ-4 R/B

Track CZ-4 R/B now!
10-day predictions
CZ-4 R/B is classified as:


NORAD ID: 29507
Int'l Code: 2006-046C
Perigee: 506.7 km
Apogee: 555.3 km
Inclination: 97.6 °
Period: 95.1 minutes
Semi major axis: 6902 km
RCS: 4.43 m2 (large)
Launch date: October 23, 2006
Source: People's Republic of China (PRC)
Launch site: Taiyaun Space Center, China (TSC)

Note: This is a ROCKET BODY
Your satellite tracking list
ABS 3
Track 1 satellite(s)




NASA's NSSDC Master Catalog

Two Line Element Set (TLE):
1 29507U 06046C   25199.46681259  .00003667  00000-0  20247-3 0  9996
2 29507  97.5935 239.9999 0035210   0.1030   0.0202 15.14045034 24577
Source of the keplerian elements: AFSPC